FW7278 Weather Reports


time (UTC)temp
C
wind
direction
speed
KPH
gust
KPH
rain 1hr
cm
rain 24hr
cm
rain mn
cm
humidity
%
barometer
mb
20260504140115 18 186 8.0 17.7 0.00 0.00 0.00 68 1009.9
20260504120111 15 165 4.8 11.3 0.00 0.00 0.00 75 1010.3
20260504081553 16 150 6.4 12.9 0.00 0.00 0.00 69 1009.7
20260504050125 16 206 8.0 19.3 0.00 0.00 0.00 65 1010.9
20260504044553 16 181 9.7 24.1 0.00 0.00 0.00 64 1011.1
20260504043059 16 184 8.0 22.5 0.00 0.00 0.00 64 1011.4
20260504041555 16 172 8.0 16.1 0.00 0.00 0.00 63 1011.6
20260504040105 16 184 3.2 17.7 0.00 0.00 0.00 62 1011.7
20260504034556 16 174 4.8 16.1 0.00 0.00 0.00 60 1011.7
20260504033050 16 164 4.8 16.1 0.00 0.00 0.00 59 1011.9
20260504031628 17 193 6.4 17.7 0.00 0.00 0.00 57 1011.9
20260504030053 17 213 6.4 22.5 0.00 0.00 0.00 56 1011.9
20260504024555 17 148 6.4 17.7 0.00 0.00 0.00 56 1011.8
20260504023053 17 143 6.4 16.1 0.00 0.00 0.00 55 1011.8
20260504021602 17 187 4.8 14.5 0.00 0.00 0.00 54 1011.7
20260504020052 17 171 8.0 17.7 0.00 0.00 0.00 54 1011.6
20260504014553 18 182 4.8 16.1 0.00 0.00 0.00 52 1011.7
20260504013059 18 146 8.0 17.7 0.00 0.00 0.00 51 1011.6
20260504011556 18 173 4.8 19.3 0.00 0.00 0.00 50 1011.5
20260504010101 18 165 9.7 27.4 0.00 0.00 0.00 49 1011.5
20260504004555 19 138 9.7 25.7 0.00 0.00 0.00 49 1011.5
20260504003051 20 173 8.0 24.1 0.00 0.00 0.00 48 1011.5
20260504001609 20 205 16.1 33.8 0.00 0.00 0.00 47 1011.4
20260504000106 20 194 11.3 37.0 0.00 0.00 0.00 46 1011.4
20260503234554 20 184 16.1 29.0 0.00 0.00 0.00 44 1011.6
20260503233052 21 200 11.3 32.2 0.00 0.00 0.00 43 1011.5
20260503231558 21 210 11.3 29.0 0.00 0.00 0.00 42 1011.7
20260503230051 21 190 9.7 30.6 0.00 0.00 0.00 41 1011.7
20260503224553 21 128 12.9 37.0 0.00 0.00 0.00 41 1011.9
20260503223054 22 201 14.5 35.4 0.00 0.00 0.00 40 1011.7
20260503221554 22 173 17.7 41.8 0.00 0.00 0.00 39 1011.8
20260503220105 22 143 14.5 38.6 0.00 0.00 0.00 39 1012.0
20260503214556 22 140 12.9 40.2 0.00 0.00 0.00 37 1012.0
20260503213133 22 150 14.5 38.6 0.00 0.00 0.00 38 1012.4
20260503211620 22 152 11.3 30.6 0.00 0.00 0.00 38 1012.9
20260503210052 22 178 9.7 25.7 0.00 0.00 0.00 37 1013.1
20260503204606 22 239 19.3 33.8 0.00 0.00 0.00 36 1013.7
20260503203104 21 175 19.3 41.8 0.00 0.00 0.00 37 1013.9
20260503201554 21 176 12.9 35.4 0.00 0.00 0.00 36 1014.3
20260503200054 21 180 17.7 37.0 0.00 0.00 0.00 36 1014.7
20260503194553 21 178 20.9 43.5 0.00 0.00 0.00 37 1015.1
20260503193053 21 146 16.1 32.2 0.00 0.00 0.00 37 1015.4
20260503191604 21 170 14.5 32.2 0.00 0.00 0.00 38 1016.0
20260503190054 20 190 16.1 32.2 0.00 0.00 0.00 38 1016.3
20260503184607 20 202 16.1 35.4 0.00 0.00 0.00 40 1016.6
20260503183052 20 205 17.7 37.0 0.00 0.00 0.00 41 1017.0
20260503181616 19 152 17.7 40.2 0.00 0.00 0.00 42 1017.5
20260503180053 18 196 16.1 35.4 0.00 0.00 0.00 44 1017.8
20260503174610 18 219 12.9 37.0 0.00 0.03 0.00 44 1018.0
20260503173118 18 150 14.5 37.0 0.00 0.03 0.00 44 1018.2
20260503171553 18 153 22.5 43.5 0.00 0.03 0.00 45 1018.5